EKAHESTA

Guest
Details From EKAH - Aarhus
To ESTA - Angelholm
Flight Number -
Tags generated
Created
Modified
Stats Distance 75 nm / 138 km
Max Altitude 4,800 ft / 1,463 m
Waypoints 3
Social Downloads 0
Likes 0
Share VATSIM

Download

Looking for another format? Having issues loading an existing format? Contact us
Advertisement - Login to hide

Notes

Basic altitude profile: - Ascent Rate: 2500ft/min - Ascent Speed: 250kts - Cruise Altitude: 35000ft - Cruise Speed: 420kts - Descent Rate: 1500ft/min - Descent Speed: 250kts Options: - Use NATs: no - Use PACOTS: no - Use low airways: yes - Use high airways: no

Route

EKAH ROKAM ESTA

ID Type Via Altitude Latitude Longitude Leg Dist Tot Dist Heading (true) Name
O EKAH APT - 0 ft / 0 m 56.30426˚ 10.61945˚ - 0 nm - Aarhus
ROKAM FIX - 4,800 ft / 1,463 m 56.31694˚ 12.18333˚ 52 nm 52 nm 89° / 90° -
O ESTA APT - 0 ft / 0 m 56.29149˚ 12.85498˚ 22 nm 74 nm 94° / 94° Angelholm

Altitude Profile

Advertisement - Login to hide

EKAH

Details ICAO EKAH (AAR)
Name Aarhus
Region Denmark / Faroe Islands
Timezone Europe/Copenhagen (UTC+2.0)
Stats Elevation 82 ft / 25 m (AMSL)
Location 56.304265° 10.619452°
Runways 2
Magnetic Variation 3.117° E

METAR

EKAH 202150Z AUTO 11003KT 9999NDV NCD 13/09 Q1027

Decode

TAF

TAF EKAH 201701Z 2018/2118 12008KT CAVOK

Decode

Departure Runways

ID Width Length Bearing (true) Bearing (mag) Surface Threshold Offset Overrun Length
10L 75 ft / 23 m 9,081 ft / 2,768 m 100.30° 97.18° Asphalt 0 ft / 0 m 0 ft / 0 m
10R 148 ft / 45 m 8,837 ft / 2,693 m 100.29° 97.17° Asphalt 0 ft / 0 m 902 ft / 275 m
28L 148 ft / 45 m 8,837 ft / 2,693 m 280.33° 277.21° Asphalt 0 ft / 0 m 738 ft / 225 m
28R 75 ft / 23 m 9,081 ft / 2,768 m 280.34° 277.22° Asphalt 0 ft / 0 m 0 ft / 0 m

ESTA

Details ICAO ESTA (AGH)
Name Angelholm
Region Sweden
Timezone Europe/Stockholm (UTC+2.0)
Stats Elevation 68 ft / 21 m (AMSL)
Location 56.291492° 12.854977°
Runways 1
Magnetic Variation 3.903° E

METAR

ESTA 202150Z AUTO 11004KT 9999 NCD 11/02 Q1028

Decode

TAF

Not found

Destination Runways

ID Width Length Bearing (true) Bearing (mag) Surface Threshold Offset Overrun Length
14 148 ft / 45 m 6,339 ft / 1,932 m 136.36° 132.46° Asphalt 0 ft / 0 m 0 ft / 0 m
32 148 ft / 45 m 6,339 ft / 1,932 m 316.38° 312.48° Asphalt 0 ft / 0 m 0 ft / 0 m

Approach Navaids

Runway Type Ident Frequency Range Bearing (true) Bearing (mag) Slope Elevation
14 Localiser DB 111.30 MHz 18 nm / 33 km 136.40° 132.50° - 38 ft / 12 m (AMSL)
14 Glidescope DB 111.30 MHz 10 nm / 19 km 136.37° 132.47° 3.00° 68 ft / 21 m (AMSL)